Location: Home
(42.5358°N, 72.7383°W)
Time: 05:25:39
(UTC-05:00)

Explorer 11/Cluster Stage 4 - Pass Details

Date: 02 December 2021
Orbit: 467 x 1255 km, 28.8° (Epoch: 25 January)

Event Time Altitude Azimuth Distance (km) Brightness Sun altitude
Rises 02:01:55 0° 217° (SW) 3,575 - -54.1°
Reaches altitude 10° 02:05:14 10° 200° (SSW) 2,779 - -53.6°
Maximum altitude 02:09:47 19° 158° (SSE) 2,372 - -52.8°
Drops below altitude 10° 02:14:46 10° 118° (ESE) 3,099 - -51.9°
Exits shadow 02:15:09 - 116° (ESE) 3,190 10.0 -51.9°
Sets 02:18:44 0° 102° (ESE) 4,144 10.8 -51.2°
